GW4853 Weather Reports


time (UTC)temp
C
wind
direction
speed
KPH
gust
KPH
rain 1hr
cm
rain 24hr
cm
rain mn
cm
humidity
%
barometer
mb
20260504130725 15 244 1.6 6.4 0.00 0.00 0.00 59 1012.1
20260504130220 14 222 6.4 11.3 0.00 0.00 0.00 58 1012.4
20260504120144 12 127 3.2 4.8 0.00 0.00 0.00 63 1012.1
20260504110612 8 121 3.2 4.8 0.00 0.00 0.00 74 1011.8
20260504110108 8 115 3.2 4.8 0.00 0.00 0.00 74 1011.6
20260504100533 8 112 3.2 3.2 0.00 0.00 0.00 77 1012.0
20260504081927 10 116 4.8 4.8 0.00 0.00 0.00 74 1012.6
20260504081424 10 122 1.6 4.8 0.00 0.00 0.00 74 1012.7
20260504080920 10 118 4.8 4.8 0.00 0.00 0.00 73 1012.6
20260504080417 10 118 4.8 4.8 0.00 0.00 0.00 73 1012.6
20260504070344 10 103 1.6 3.2 0.00 0.00 0.00 70 1013.2
20260504050732 11 126 3.2 6.4 0.00 0.00 0.00 61 1014.1
20260504050229 11 84 3.2 4.8 0.00 0.00 0.00 62 1013.9
20260504045726 10 148 1.6 4.8 0.00 0.00 0.00 65 1014.3
20260504045221 10 78 0.0 0.0 0.00 0.00 0.00 74 1014.2
20260504044719 10 85 1.6 1.6 0.00 0.00 0.00 75 1014.3
20260504044216 10 86 0.0 3.2 0.00 0.00 0.00 74 1014.2
20260504043713 9 87 1.6 1.6 0.00 0.00 0.00 79 1013.9
20260504043210 10 86 1.6 1.6 0.00 0.00 0.00 78 1014.0
20260504042708 9 86 1.6 1.6 0.00 0.00 0.00 80 1013.8
20260504042204 10 87 0.0 1.6 0.00 0.00 0.00 80 1013.8
20260504041659 10 88 1.6 1.6 0.00 0.00 0.00 78 1013.7
20260504041155 10 89 0.0 1.6 0.00 0.00 0.00 77 1013.9
20260504040653 10 117 1.6 1.6 0.00 0.00 0.00 76 1014.1
20260504040150 10 100 1.6 3.2 0.00 0.00 0.00 71 1014.0
20260504035646 10 47 3.2 3.2 0.00 0.00 0.00 73 1014.2
20260504035143 10 41 1.6 3.2 0.00 0.00 0.00 72 1014.3
20260504034641 10 33 0.0 0.0 0.00 0.00 0.00 74 1014.1
20260504034138 10 33 0.0 0.0 0.00 0.00 0.00 74 1014.2
20260504033635 10 33 0.0 0.0 0.00 0.00 0.00 71 1014.4
20260504033133 10 34 0.0 1.6 0.00 0.00 0.00 72 1014.3
20260504032629 10 33 0.0 0.0 0.00 0.00 0.00 73 1014.3
20260504032126 10 33 0.0 0.0 0.00 0.00 0.00 72 1014.4
20260504031623 10 33 0.0 0.0 0.00 0.00 0.00 71 1014.3
20260504031119 10 33 0.0 1.6 0.00 0.00 0.00 69 1014.3
20260504030616 10 34 1.6 1.6 0.00 0.00 0.00 71 1014.1
20260504030113 10 345 0.0 0.0 0.00 0.00 0.00 69 1014.2
20260504025610 10 344 0.0 1.6 0.00 0.00 0.00 68 1014.0
20260504025107 10 21 0.0 1.6 0.00 0.00 0.00 61 1014.2
20260504024604 10 22 0.0 1.6 0.00 0.00 0.00 64 1014.4
20260504024101 10 21 0.0 0.0 0.00 0.00 0.00 61 1014.4
20260504023557 10 21 0.0 0.0 0.00 0.00 0.00 62 1014.2
20260504023053 11 21 1.6 1.6 0.00 0.00 0.00 58 1014.3
20260504022549 11 21 0.0 1.6 0.00 0.00 0.00 59 1014.4
20260504022046 11 21 0.0 0.0 0.00 0.00 0.00 58 1014.3
20260504021543 11 21 0.0 0.0 0.00 0.00 0.00 58 1014.3
20260504021040 11 21 1.6 1.6 0.00 0.00 0.00 59 1014.1
20260504020537 11 21 0.0 0.0 0.00 0.00 0.00 57 1014.1
20260504020034 11 20 0.0 0.0 0.00 0.00 0.00 59 1014.0
20260504015530 11 74 1.6 1.6 0.00 0.00 0.00 54 1014.0
20260504015026 11 74 0.0 1.6 0.00 0.00 0.00 52 1014.0
20260504014522 11 74 1.6 1.6 0.00 0.00 0.00 52 1013.8
20260504014020 12 69 0.0 0.0 0.00 0.00 0.00 55 1013.9
20260504013517 12 69 0.0 0.0 0.00 0.00 0.00 52 1013.8
20260504013014 12 69 0.0 0.0 0.00 0.00 0.00 50 1013.7
20260504012512 12 69 1.6 1.6 0.00 0.00 0.00 49 1013.9
20260504012009 12 69 0.0 1.6 0.00 0.00 0.00 47 1014.0
20260504011505 13 55 1.6 1.6 0.00 0.00 0.00 48 1013.9
20260504011001 13 63 1.6 3.2 0.00 0.00 0.00 45 1013.9
20260504010457 13 46 3.2 3.2 0.00 0.00 0.00 45 1014.2
20260504005953 13 22 0.0 0.0 0.00 0.00 0.00 46 1014.0
20260504005450 13 21 0.0 0.0 0.00 0.00 0.00 43 1014.1
20260504004948 13 21 3.2 3.2 0.00 0.00 0.00 43 1014.3
20260504004445 13 350 0.0 0.0 0.00 0.00 0.00 44 1014.2
20260504003943 13 349 0.0 1.6 0.00 0.00 0.00 45 1014.1
20260504003438 14 333 0.0 0.0 0.00 0.00 0.00 43 1014.2
20260504002935 14 332 3.2 3.2 0.00 0.00 0.00 42 1014.0
20260504002432 14 22 1.6 4.8 0.00 0.00 0.00 41 1013.9
20260504001930 14 320 4.8 4.8 0.00 0.00 0.00 44 1014.1
20260504001427 14 13 3.2 4.8 0.00 0.00 0.00 47 1014.2
20260504000924 14 352 3.2 3.2 0.00 0.00 0.00 46 1014.1
20260504000423 14 91 1.6 1.6 0.00 0.00 0.00 44 1014.0
20260503235918 14 91 1.6 1.6 0.00 0.00 0.00 42 1014.0
20260503235416 15 73 0.0 1.6 0.00 0.00 0.00 41 1014.1
20260503234913 15 108 0.0 1.6 0.00 0.00 0.00 40 1014.2
20260503234411 15 151 0.0 3.2 0.00 0.00 0.00 42 1014.3
20260503233909 15 267 0.0 3.2 0.00 0.00 0.00 41 1013.9
20260503233405 15 150 3.2 3.2 0.00 0.00 0.00 38 1014.1
20260503232901 15 197 1.6 6.4 0.00 0.00 0.00 38 1014.1
20260503232358 15 68 3.2 3.2 0.00 0.00 0.00 39 1014.1
20260503231856 15 93 1.6 1.6 0.00 0.00 0.00 39 1014.3
20260503231353 15 230 1.6 3.2 0.00 0.00 0.00 38 1014.5
20260503230849 15 188 4.8 6.4 0.00 0.00 0.00 36 1014.2
20260503230346 15 137 1.6 3.2 0.00 0.00 0.00 37 1014.4
20260503225844 16 251 1.6 3.2 0.00 0.00 0.00 39 1014.6
20260503225339 16 293 1.6 3.2 0.00 0.00 0.00 36 1014.7
20260503224836 16 208 3.2 9.7 0.00 0.00 0.00 35 1014.7
20260503224333 16 301 4.8 6.4 0.00 0.00 0.00 35 1014.6
20260503223831 16 259 0.0 6.4 0.00 0.00 0.00 37 1014.9
20260503223328 16 153 3.2 4.8 0.00 0.00 0.00 37 1015.0
20260503222824 16 237 3.2 6.4 0.00 0.00 0.00 34 1014.9
20260503222323 16 231 3.2 11.3 0.00 0.00 0.00 35 1015.0
20260503221820 16 215 1.6 6.4 0.00 0.00 0.00 36 1015.1
20260503221319 17 215 11.3 20.9 0.00 0.00 0.00 35 1015.0
20260503220814 17 180 3.2 4.8 0.00 0.00 0.00 38 1015.1
20260503220312 17 209 6.4 11.3 0.00 0.00 0.00 34 1015.0
20260503215808 17 49 1.6 6.4 0.00 0.00 0.00 34 1015.0
20260503215305 17 308 4.8 9.7 0.00 0.00 0.00 35 1014.7
20260503214803 17 41 3.2 14.5 0.00 0.00 0.00 35 1014.9
20260503214300 18 213 3.2 9.7 0.00 0.00 0.00 32 1014.8
20260503213758 17 209 1.6 6.4 0.00 0.00 0.00 32 1015.1
20260503213255 18 245 4.8 6.4 0.00 0.00 0.00 31 1015.1
20260503212752 18 31 0.0 1.6 0.00 0.00 0.00 43 1015.0
20260503212249 17 236 0.0 12.9 0.00 0.00 0.00 33 1015.1
20260503211747 17 354 1.6 12.9 0.00 0.00 0.00 34 1015.1
20260503211243 17 147 6.4 9.7 0.00 0.00 0.00 32 1015.1
20260503210738 18 229 8.0 12.9 0.00 0.00 0.00 31 1015.1
20260503210236 17 253 0.0 1.6 0.00 0.00 0.00 38 1015.1
20260503205731 17 196 1.6 4.8 0.00 0.00 0.00 32 1015.1
20260503205227 17 198 8.0 11.3 0.00 0.00 0.00 32 1015.0
20260503204724 17 200 4.8 11.3 0.00 0.00 0.00 34 1015.0
20260503204222 17 163 3.2 11.3 0.00 0.00 0.00 36 1015.0
20260503203719 17 264 1.6 6.4 0.00 0.00 0.00 37 1015.1
20260503203216 16 199 6.4 14.5 0.00 0.00 0.00 35 1015.3
20260503202714 17 216 4.8 11.3 0.00 0.00 0.00 32 1015.6
20260503202211 17 218 3.2 9.7 0.00 0.00 0.00 34 1015.6
20260503201709 17 149 3.2 6.4 0.00 0.00 0.00 32 1015.5
20260503201206 17 267 3.2 9.7 0.00 0.00 0.00 33 1015.7
20260503200702 16 320 6.4 14.5 0.00 0.00 0.00 35 1015.8
20260503200159 17 296 3.2 6.4 0.00 0.00 0.00 36 1015.9
20260503195656 16 242 3.2 6.4 0.00 0.00 0.00 34 1015.9
20260503195153 16 175 6.4 11.3 0.00 0.00 0.00 33 1016.2
20260503194650 17 298 3.2 4.8 0.00 0.00 0.00 39 1016.2
20260503194145 16 177 4.8 9.7 0.00 0.00 0.00 39 1016.3
20260503193642 16 162 8.0 12.9 0.00 0.00 0.00 34 1016.7
20260503193138 17 227 6.4 17.7 0.00 0.00 0.00 33 1016.6
20260503192633 16 167 3.2 11.3 0.00 0.00 0.00 37 1016.6
20260503192129 16 234 8.0 9.7 0.00 0.00 0.00 34 1016.6
20260503191626 16 273 1.6 3.2 0.00 0.00 0.00 34 1016.7
20260503191124 16 293 1.6 9.7 0.00 0.00 0.00 39 1016.9
20260503190620 16 160 6.4 9.7 0.00 0.00 0.00 32 1017.0
20260503190117 16 184 4.8 14.5 0.00 0.00 0.00 34 1017.4
20260503185614 16 237 3.2 4.8 0.00 0.00 0.00 36 1017.2
20260503185114 16 316 6.4 9.7 0.00 0.00 0.00 38 1017.7
20260503184609 16 149 3.2 6.4 0.00 0.00 0.00 43 1017.6
20260503184106 15 143 4.8 11.3 0.00 0.00 0.00 36 1017.7
20260503183603 16 145 3.2 6.4 0.00 0.00 0.00 42 1017.8
20260503183100 16 153 3.2 9.7 0.00 0.00 0.00 41 1018.0
20260503182558 15 215 3.2 11.3 0.00 0.00 0.00 36 1018.2
20260503182056 15 271 4.8 14.5 0.00 0.00 0.00 35 1018.1
20260503181553 16 218 4.8 11.3 0.00 0.00 0.00 40 1018.2
20260503181049 15 254 9.7 14.5 0.00 0.00 0.00 38 1018.4
20260503180546 15 204 4.8 12.9 0.00 0.00 0.00 35 1018.2
20260503180044 15 229 8.0 11.3 0.00 0.00 0.00 38 1018.3
20260503175541 15 231 3.2 6.4 0.00 0.00 0.00 38 1018.3
20260503175038 14 329 6.4 11.3 0.00 0.00 0.00 40 1018.4
20260503174535 15 231 3.2 9.7 0.00 0.00 0.00 40 1018.7
20260503174031 15 272 3.2 9.7 0.00 0.00 0.00 41 1018.7
20260503173527 14 299 1.6 11.3 0.00 0.00 0.00 38 1018.8
20260503173023 15 58 1.6 11.3 0.00 0.00 0.00 45 1018.6
20260503172521 15 125 1.6 9.7 0.00 0.00 0.00 38 1018.9
20260503172018 15 306 4.8 9.7 0.00 0.00 0.00 41 1018.8
20260503171514 14 237 1.6 6.4 0.00 0.00 0.00 47 1018.9
20260503171012 14 346 1.6 6.4 0.00 0.00 0.00 45 1019.1
20260503170508 14 203 6.4 12.9 0.00 0.00 0.00 42 1018.9
20260503150900 12 307 6.4 9.7 0.00 0.00 0.00 46 1020.9
20260503150356 11 222 3.2 9.7 0.00 0.00 0.00 44 1020.9